Weather History for KFAF - May, 2013

Change the Weather History Date:

Friday, May 3, 2013

  Actual Average Record
Temperature  
Mean Temperature 56 °F -  
Max Temperature 63 °F 72 °F 82 °F (2001)
Min Temperature 50 °F 54 °F 46 °F (2005)
Degree Days  
Heating Degree Days 8    
Growing Degree Days 6 (Base 50)    
Moisture  
Dew Point 48 °F    
Average Humidity 73    
Maximum Humidity 94    
Minimum Humidity 39    
Precipitation  
Precipitation 0.00 in - - ()
Sea Level Pressure  
Sea Level Pressure 30.30 in    
Wind  
Wind Speed 7 mph (ENE)    
Max Wind Speed 16 mph    
Max Gust Speed 24 mph    
Visibility 10 miles    
Events      
Averages and records for this station are not official NWS values.
T = Trace of Precipitation, MM = Missing Value Source: NWS Daily Summary

Daily Weather History Graph

Daily Weather History Graph

Search for Another Location

Airport or City:

Trip Planner

Search our weather history database for the weather conditions in past years. The results will help you decide how hot, cold, wet, or windy it might be!

Date:

Astronomy

May. 03, 2013 Rise Set
Actual Time 6:09 AM EDT 7:57 PM EDT
Civil Twilight 5:41 AM EDT 8:25 PM EDT
Nautical Twilight 5:07 AM EDT 9:00 PM EDT
Astronomical Twilight 4:31 AM EDT 9:36 PM EDT
Moon 2:23 AM EDT (5/3) 1:58 PM EDT (5/3)
Length of Visible Light 14h 44m
Length of Day
13h 48m
Last Quarter, 37% of the Moon is Illuminated
May 3
Last Quarter
May 9
New
May 18
First Quarter
May 25
Full
May 31
Last Quarter

Hourly Weather History & Observations

Time (EDT) Temp. Dew Point Humidity Pressure Visibility Wind Dir Wind Speed Gust Speed Precip Events Conditions
12:58 AM 50.0 °F 47.5 °F 91% 30.29 in 10.0 mi NE 1.2 mph - N/A   Clear
1:58 AM 50.9 °F 48.7 °F 92% 30.26 in 10.0 mi NE 5.8 mph - N/A   Clear
2:58 AM 51.3 °F 49.1 °F 92% 30.25 in 10.0 mi NE 5.8 mph - N/A   Clear
3:58 AM 50.9 °F 48.9 °F 93% 30.25 in 10.0 mi NE 4.6 mph - N/A   Clear
4:58 AM 51.1 °F 49.5 °F 94% 30.26 in 10.0 mi NE 4.6 mph - N/A   Partly Cloudy
5:38 AM 53.6 °F 51.8 °F 94% 30.26 in 10.0 mi Variable 4.6 mph - N/A   Overcast
5:53 AM 53.6 °F 51.8 °F 94% 30.26 in 10.0 mi NE 3.5 mph - N/A   Overcast
5:58 AM 54.0 °F 51.8 °F 92% 30.26 in 10.0 mi NE 4.6 mph - N/A   Overcast
6:23 AM 53.6 °F 51.8 °F 94% 30.27 in 10.0 mi NE 3.5 mph - N/A   Overcast
6:43 AM 55.4 °F 51.8 °F 88% 30.27 in 10.0 mi Variable 5.8 mph - N/A   Mostly Cloudy
6:48 AM 55.4 °F 51.8 °F 88% 30.27 in 10.0 mi ENE 6.9 mph - N/A   Scattered Clouds
6:58 AM 55.6 °F 52.5 °F 89% 30.27 in 10.0 mi ENE 8.1 mph - N/A   Partly Cloudy
7:58 AM 58.1 °F 52.2 °F 81% 30.30 in 10.0 mi ENE 9.2 mph - N/A   Partly Cloudy
8:53 AM 59.0 °F 51.8 °F 77% 30.30 in 10.0 mi East 12.7 mph 18.4 mph N/A   Mostly Cloudy
8:58 AM 59.9 °F 51.8 °F 75% 30.31 in 10.0 mi ENE 12.7 mph 18.4 mph N/A   Mostly Cloudy
9:58 AM 62.2 °F 47.7 °F 59% 30.32 in 10.0 mi ENE 13.8 mph 20.7 mph N/A   Partly Cloudy
10:58 AM 63.9 °F 38.1 °F 39% 30.33 in 10.0 mi ENE 12.7 mph 21.9 mph N/A   Clear
11:58 AM 62.8 °F 45.7 °F 54% 30.34 in 10.0 mi NE 13.8 mph 21.9 mph N/A   Clear
12:58 PM 62.4 °F 48.6 °F 60% 30.33 in 10.0 mi East 12.7 mph 24.2 mph N/A   Partly Cloudy
1:28 PM 62.6 °F 48.2 °F 59% 30.32 in 10.0 mi NE 12.7 mph 19.6 mph N/A   Mostly Cloudy
1:37 PM 60.8 °F 48.2 °F 63% 30.32 in 10.0 mi East 15.0 mph - N/A   Mostly Cloudy
1:52 PM 62.6 °F 46.4 °F 55% 30.33 in 10.0 mi ENE 15.0 mph 21.9 mph N/A   Scattered Clouds
1:58 PM 62.4 °F 46.0 °F 55% 30.34 in 10.0 mi ENE 16.1 mph 21.9 mph N/A   Scattered Clouds
2:28 PM 60.8 °F 46.4 °F 59% 30.33 in 10.0 mi East 11.5 mph 20.7 mph N/A   Scattered Clouds
2:58 PM 61.7 °F 45.5 °F 55% 30.33 in 10.0 mi East 9.2 mph 21.9 mph N/A   Mostly Cloudy
3:58 PM 60.8 °F 44.8 °F 56% 30.31 in 10.0 mi ENE 12.7 mph 20.7 mph N/A   Scattered Clouds
4:28 PM 59.0 °F 46.4 °F 63% 30.29 in 10.0 mi ENE 15.0 mph 21.9 mph N/A   Mostly Cloudy
4:33 PM 59.0 °F 46.4 °F 63% 30.29 in 10.0 mi ENE 15.0 mph 19.6 mph N/A   Scattered Clouds
4:58 PM 59.5 °F 46.0 °F 61% 30.30 in 10.0 mi East 12.7 mph 19.6 mph N/A   Partly Cloudy
5:58 PM 58.3 °F 45.5 °F 62% 30.30 in 10.0 mi East 10.4 mph - N/A   Partly Cloudy
6:08 PM 57.2 °F 46.4 °F 67% 30.29 in 10.0 mi ENE 11.5 mph 18.4 mph N/A   Mostly Cloudy
6:48 PM 55.4 °F 46.4 °F 72% 30.29 in 10.0 mi NE 11.5 mph 19.6 mph N/A   Mostly Cloudy
6:58 PM 55.6 °F 45.5 °F 69% 30.30 in 10.0 mi ENE 6.9 mph - N/A   Mostly Cloudy
7:58 PM 54.1 °F 45.0 °F 71% 30.30 in 10.0 mi NE 9.2 mph - N/A   Scattered Clouds
8:58 PM 52.9 °F 44.8 °F 74% 30.30 in 10.0 mi ENE 5.8 mph - N/A   Clear
9:58 PM 52.0 °F 44.4 °F 75% 30.31 in 10.0 mi NE 2.3 mph - N/A   Clear
10:58 PM 51.4 °F 45.0 °F 79% 30.30 in 10.0 mi Variable 4.6 mph - N/A   Clear
11:58 PM 51.3 °F 45.0 °F 79% 30.28 in 10.0 mi NE 8.1 mph - N/A   Clear